Hourly Data Report for April 24, 2017

All times are specified in Local Standard Time (LST). Add 1 hour to adjust for Daylight Saving Time where and when it is observed.

TORONTO CITY
ONTARIO

43°40'00.000" N
79°24'00.000" W
112.50 m
6158355
71508
XTO

Download Data

Hourly Data (April 2017)
Hourly Data Report for April 24, 2017
TIME Temp Definition
°C
Dew Point Definition
°C
Rel Hum Definition
%
Wind Dir Definition
10's deg

Wind Spd Definition
km/h
Visibility Definition
km
Stn Press Definition
kPa
Hmdx Definition


Wind Chill Definition


Weather Definition


00:00 10.7 2.1 55 LegendMM LegendMM   100.53     LegendNANA
01:00 9.6 2.2 60 LegendMM LegendMM   100.53     LegendNANA
02:00 9.2 2.0 61 LegendMM LegendMM   100.53     LegendNANA
03:00 9.2 2.0 60 LegendMM LegendMM   100.58     LegendNANA
04:00 8.6 2.2 64 LegendMM LegendMM   100.64     LegendNANA
05:00 8.3 2.9 69 LegendMM LegendMM   100.70     LegendNANA
06:00 7.3 3.0 74 LegendMM LegendMM   100.76     LegendNANA
07:00 7.7 2.4 69 LegendMM LegendMM   100.83     LegendNANA
08:00 7.7 2.6 70 LegendMM LegendMM   100.84     LegendNANA
09:00 7.6 0.0 59 LegendMM LegendMM   100.86     LegendNANA
10:00 7.8 -1.4 52 LegendMM LegendMM   100.90     LegendNANA
11:00 7.9 -1.8 50 LegendMM LegendMM   100.89     LegendNANA
12:00 8.5 0.3 57 LegendMM LegendMM   100.86     LegendNANA
13:00 9.7 1.4 56 LegendMM LegendMM   100.77     LegendNANA
14:00 9.7 -0.4 49 LegendMM LegendMM   100.73     LegendNANA
15:00 10.9 -1.3 43 LegendMM LegendMM   100.64     LegendNANA
16:00 9.7 -1.8 44 LegendMM LegendMM   100.60     LegendNANA
17:00 10.2 -1.5 44 LegendMM LegendMM   100.55     LegendNANA
18:00 9.7 -1.2 47 LegendMM LegendMM   100.48     LegendNANA
19:00 9.1 -0.1 53 LegendMM LegendMM   100.45     LegendNANA
20:00 8.6 0.7 57 LegendMM LegendMM   100.45     LegendNANA
21:00 9.1 0.8 56 LegendMM LegendMM   100.48     LegendNANA
22:00 7.8 1.7 65 LegendMM LegendMM   100.47     LegendNANA
23:00 8.2 1.2 62 LegendMM LegendMM   100.47     LegendNANA

Notes on Data Quality.

Legend

  • E = Estimated
  • M = Missing
  • NA = Not Available
Date modified: